User: anonymous   Login
Location: Caltech
(34.1382°N, 118.1253°W)
Time: 22:23:13
(UTC-08:00)
Language:

Tiros 1 despin weight - Orbit

View from above orbital plane
View from above orbital plane
View from above satellite
View from above satellite

Ground track
Ground track

The orbit data is extracted from the following two-line orbital elements,

1 00115U 60002D   15025.45407652  .00001437  00000-0  20686-3 0  5649
2 00115 048.1675 018.8024 0035787 214.6876 282.6377 14.81558698920581
Epoch (UTC): 25 January 2015 10:53:52
Eccentricity: 0.0035787
inclination: 48.1675°
perigee height: 599 km
apogee height: 649 km
right ascension of ascending node: 18.8024°
argument of perigee: 214.6876°
revolutions per day: 14.81558698
mean anomaly at epoch: 282.6377°
orbit number at epoch: 92058

The dashed part of the orbit path shows where the satellite is in the earth's shadow,  

DLR